Location: Coupvray
(48.8929°N, 2.7967°E)
Time: 21:08:41
(UTC+00:00)

CZ-2D R/B - Pass Details

Date: 14 July 2020
Orbit: 792 x 844 km, 98.7° (Epoch: 14 August)

Event Time Altitude Azimuth Distance (km) Brightness Sun altitude
Rises 00:38:43 0° 22° (NNE) 3,349 6.9 -18.8°
Reaches altitude 10° 00:41:21 10° 33° (NNE) 2,420 5.6 -18.7°
Maximum altitude 00:46:03 30° 95° (E) 1,431 3.4 -18.6°
Enters shadow 00:49:08 18° 144° (SE) 1,928 3.7 -18.4°
